Погода в Куманово

Северная Македония     42°08′34″N   21°42′56″E
темп.,
°C
ветер,
м/с
пор.,
м/с
влажн.,
%
обл.,
%
осадки,
мм/ч
давл.,
гПа
погр.,
м
11 мая, вт
вт1123:00+12ююв12836 0.0 101812
02:00+11ююв228756 0.0 101813
05:00+10ю12893 0.0 101813
08:00+14ююв23730 0.0 1018287
11:00+19ююв33600 0.0 1016655
14:00+23ююв33495 0.0 10141007
17:00+23ююв344729 0.0 10121077
20:00+16ю227510 0.0 101219
12 мая, ср
ср1223:00+13ююв22871 0.2 101224
02:00+11ююв22921 1.3 101229
05:00+9вюв22924 0.2 101126
08:00+13ю34805 0.2 1011339
11:00+18ююв4467100 0.1 1009780
14:00+21ююв4457100 0.2 10061166
17:00+20юз236528 4.7 1005244
20:00+13ссв46876 7.7 100692
13 мая, чт
чт1323:00+11с22800 0.9 100822
02:00+9ссз22760 0.9 100916
05:00+8с11785 0.0 100910
08:00+13ююв11650 0.0 1009257
11:00+17ю34551 0.0 10081006
14:00+20ююз364698 0.1 10062288
17:00+19юз344862 0.3 10061407
20:00+12с2274100 0.5 100824
14 мая, пт
пт1423:00+12св117250 0.1 100912
02:00+9ссв227893 0.1 101014
05:00+8всв118083 0.0 101110
08:00+13ю22695 0.0 1011334
11:00+17ююз345312 0.6 10111412
14:00+19ююз354197 0.8 10102451
17:00+19с334887 0.0 10111124
20:00+13с3370100 0.0 101239
15 мая, сб
сб1523:00+12с2268100 0.0 101336
02:00+11с226860 0.0 101335
05:00+9всв0172100 0.0 101310
08:00+13ююв2267100 0.0 1012233
11:00+16ю5762100 0.1 1011864
14:00+16ю4662100 0.3 10091129
17:00+14ю2379100 0.9 1008347
20:00+11с348938 2.3 1009109